Location: Marcé
(47.5801°N, 0.3280°W)
Time: 09:19:09
(UTC+01:00)

Vanguard 1 - Pass Details

Date: 02 December 2021
Orbit: 652 x 3830 km, 34.2° (Epoch: 24 January)

Event Time Altitude Azimuth Distance (km) Brightness Sun altitude
Rises 05:34:12 0° 271° (W) 7,958 - -28.8°
Reaches altitude 10° 05:40:13 10° 266° (W) 6,802 - -27.8°
Exits shadow 05:49:56 29° 251° (WSW) 4,924 13.0 -26.1°
Maximum altitude 05:59:26 44° 204° (SSW) 3,573 12.7 -24.5°
Drops below altitude 10° 06:11:33 10° 137° (SE) 4,396 14.1 -22.5°
Sets 06:14:30 0° 131° (SE) 5,038 14.6 -22.0°
